| time (UTC) | temp F | wind direction | speed MPH | gust MPH | rain 1hr in | rain 24hr in | rain mn in | humidity % | barometer mb |
| 20260504233301 | 61 | 77 | 2.0 | 5.0 | 0.00 | 0.00 | 0.00 | 39 | 1005.6 |
| 20260504232745 | 61 | 112 | 3.0 | 10.0 | 0.00 | 0.00 | 0.00 | 39 | 1005.6 |
| 20260504232249 | 62 | 146 | 5.0 | 10.0 | 0.00 | 0.00 | 0.00 | 40 | 1005.6 |
| 20260504231753 | 63 | 120 | 6.0 | 18.0 | 0.00 | 0.00 | 0.00 | 39 | 1005.9 |
| 20260504231259 | 65 | 330 | 8.0 | 19.0 | 0.00 | 0.00 | 0.00 | 35 | 1005.9 |
| 20260504230742 | 69 | 331 | 7.0 | 18.0 | 0.00 | 0.00 | 0.00 | 32 | 1005.7 |
| 20260504230249 | 72 | 22 | 7.0 | 10.0 | 0.00 | 0.00 | 0.00 | 16 | 1005.5 |
| 20260504225813 | 74 | 22 | 3.0 | 6.0 | 0.00 | 0.00 | 0.00 | 17 | 1005.2 |
| 20260504225258 | 74 | 340 | 2.0 | 5.0 | 0.00 | 0.00 | 0.00 | 11 | 1005.0 |
| 20260504224742 | 75 | 6 | 2.0 | 5.0 | 0.00 | 0.00 | 0.00 | 13 | 1005.0 |
| 20260504224248 | 76 | 320 | 2.0 | 6.0 | 0.00 | 0.00 | 0.00 | 15 | 1004.9 |
| 20260504223749 | 77 | 28 | 2.0 | 8.0 | 0.00 | 0.00 | 0.00 | 12 | 1004.9 |
| 20260504223256 | 76 | 240 | 4.0 | 8.0 | 0.00 | 0.00 | 0.00 | 10 | 1005.0 |
| 20260504222757 | 77 | 54 | 3.0 | 9.0 | 0.00 | 0.00 | 0.00 | 12 | 1005.1 |
| 20260504222305 | 76 | 74 | 5.0 | 9.0 | 0.00 | 0.00 | 0.00 | 11 | 1005.1 |
| 20260504221807 | 76 | 19 | 4.0 | 11.0 | 0.00 | 0.00 | 0.00 | 15 | 1005.1 |
| 20260504221253 | 76 | 30 | 5.0 | 11.0 | 0.00 | 0.00 | 0.00 | 15 | 1005.2 |
| 20260504220757 | 76 | 83 | 4.0 | 7.0 | 0.00 | 0.00 | 0.00 | 13 | 1005.1 |
| 20260504220244 | 76 | 22 | 2.0 | 5.0 | 0.00 | 0.00 | 0.00 | 12 | 1005.2 |
| 20260504215746 | 75 | 8 | 3.0 | 7.0 | 0.00 | 0.00 | 0.00 | 11 | 1005.3 |
| 20260504215253 | 75 | 349 | 5.0 | 7.0 | 0.00 | 0.00 | 0.00 | 9 | 1005.3 |
| 20260504214817 | 76 | 347 | 4.0 | 6.0 | 0.00 | 0.00 | 0.00 | 10 | 1005.6 |
| 20260504214303 | 76 | 254 | 2.0 | 11.0 | 0.00 | 0.00 | 0.00 | 12 | 1005.7 |
| 20260504213746 | 77 | 295 | 4.0 | 11.0 | 0.00 | 0.00 | 0.00 | 8 | 1005.8 |
| 20260504213252 | 78 | 197 | 4.0 | 10.0 | 0.00 | 0.00 | 0.00 | 9 | 1005.9 |
| 20260504212757 | 78 | 248 | 2.0 | 4.0 | 0.00 | 0.00 | 0.00 | 12 | 1005.9 |
| 20260504212243 | 77 | 360 | 2.0 | 5.0 | 0.00 | 0.00 | 0.00 | 10 | 1006.0 |
| 20260504211747 | 77 | 53 | 2.0 | 7.0 | 0.00 | 0.00 | 0.00 | 15 | 1006.1 |
| 20260504211253 | 77 | 45 | 4.0 | 7.0 | 0.00 | 0.00 | 0.00 | 11 | 1006.2 |
| 20260504210756 | 77 | 99 | 3.0 | 6.0 | 0.00 | 0.00 | 0.00 | 12 | 1006.2 |
| 20260504210302 | 77 | 124 | 2.0 | 7.0 | 0.00 | 0.00 | 0.00 | 10 | 1006.3 |
| 20260504205805 | 77 | 268 | 3.0 | 10.0 | 0.00 | 0.00 | 0.00 | 8 | 1006.3 |
| 20260504205250 | 77 | 185 | 2.0 | 12.0 | 0.00 | 0.00 | 0.00 | 11 | 1006.6 |
| 20260504204754 | 77 | 303 | 5.0 | 12.0 | 0.00 | 0.00 | 0.00 | 9 | 1006.5 |
| 20260504204259 | 77 | 241 | 5.0 | 11.0 | 0.00 | 0.00 | 0.00 | 10 | 1006.5 |
| 20260504203802 | 77 | 347 | 2.0 | 8.0 | 0.00 | 0.00 | 0.00 | 10 | 1006.5 |
| 20260504203247 | 77 | 308 | 2.0 | 9.0 | 0.00 | 0.00 | 0.00 | 11 | 1006.7 |
| 20260504202750 | 77 | 222 | 3.0 | 10.0 | 0.00 | 0.00 | 0.00 | 10 | 1006.7 |
| 20260504202319 | 77 | 297 | 2.0 | 11.0 | 0.00 | 0.00 | 0.00 | 11 | 1006.6 |
| 20260504201743 | 76 | 274 | 4.0 | 9.0 | 0.00 | 0.00 | 0.00 | 12 | 1006.8 |
| 20260504201312 | 77 | 185 | 5.0 | 9.0 | 0.00 | 0.00 | 0.00 | 12 | 1006.8 |
| 20260504200754 | 77 | 218 | 2.0 | 9.0 | 0.00 | 0.00 | 0.00 | 13 | 1006.9 |
| 20260504200320 | 77 | 279 | 2.0 | 4.0 | 0.00 | 0.00 | 0.00 | 14 | 1006.8 |
| 20260504195803 | 76 | 18 | 1.0 | 6.0 | 0.00 | 0.00 | 0.00 | 14 | 1007.0 |
| 20260504195248 | 76 | 243 | 2.0 | 5.0 | 0.00 | 0.00 | 0.00 | 13 | 1007.1 |
| 20260504194812 | 76 | 218 | 2.0 | 7.0 | 0.00 | 0.00 | 0.00 | 12 | 1007.1 |
| 20260504194258 | 76 | 185 | 3.0 | 7.0 | 0.00 | 0.00 | 0.00 | 12 | 1007.1 |
| 20260504193743 | 75 | 292 | 2.0 | 7.0 | 0.00 | 0.00 | 0.00 | 12 | 1007.2 |
| 20260504193249 | 75 | 104 | 4.0 | 7.0 | 0.00 | 0.00 | 0.00 | 13 | 1007.3 |
| 20260504192753 | 75 | 205 | 2.0 | 5.0 | 0.00 | 0.00 | 0.00 | 13 | 1007.4 |
| 20260504192300 | 74 | 66 | 2.0 | 5.0 | 0.00 | 0.00 | 0.00 | 13 | 1007.4 |
| 20260504191743 | 74 | 116 | 2.0 | 5.0 | 0.00 | 0.00 | 0.00 | 16 | 1007.6 |
| 20260504191251 | 74 | 325 | 2.0 | 8.0 | 0.00 | 0.00 | 0.00 | 14 | 1007.6 |
| 20260504190755 | 74 | 163 | 4.0 | 8.0 | 0.00 | 0.00 | 0.00 | 12 | 1007.6 |
| 20260504190300 | 73 | 32 | 2.0 | 8.0 | 0.00 | 0.00 | 0.00 | 16 | 1007.7 |
| 20260504185742 | 73 | 164 | 4.0 | 8.0 | 0.00 | 0.00 | 0.00 | 15 | 1007.7 |
| 20260504185248 | 73 | 133 | 3.0 | 8.0 | 0.00 | 0.00 | 0.00 | 13 | 1007.8 |
| 20260504184751 | 73 | 185 | 4.0 | 8.0 | 0.00 | 0.00 | 0.00 | 13 | 1007.9 |
| 20260504184257 | 73 | 175 | 4.0 | 8.0 | 0.00 | 0.00 | 0.00 | 15 | 1007.9 |
| 20260504183741 | 73 | 87 | 2.0 | 6.0 | 0.00 | 0.00 | 0.00 | 17 | 1007.9 |
| 20260504183248 | 72 | 25 | 4.0 | 5.0 | 0.00 | 0.00 | 0.00 | 17 | 1008.1 |
| 20260504182751 | 72 | 106 | 2.0 | 8.0 | 0.00 | 0.00 | 0.00 | 16 | 1008.2 |
| 20260504182257 | 72 | 114 | 3.0 | 8.0 | 0.00 | 0.00 | 0.00 | 18 | 1008.1 |
| 20260504181741 | 71 | 143 | 2.0 | 8.0 | 0.00 | 0.00 | 0.00 | 17 | 1008.1 |
| 20260504181306 | 71 | 279 | 4.0 | 8.0 | 0.00 | 0.00 | 0.00 | 17 | 1008.2 |
| 20260504180810 | 71 | 124 | 3.0 | 6.0 | 0.00 | 0.00 | 0.00 | 17 | 1008.3 |
| 20260504180253 | 71 | 148 | 2.0 | 5.0 | 0.00 | 0.00 | 0.00 | 17 | 1008.3 |
| 20260504175755 | 70 | 185 | 1.0 | 5.0 | 0.00 | 0.00 | 0.00 | 17 | 1008.4 |
| 20260504175304 | 70 | 77 | 2.0 | 7.0 | 0.00 | 0.00 | 0.00 | 20 | 1008.5 |
| 20260504174746 | 69 | 6 | 3.0 | 7.0 | 0.00 | 0.00 | 0.00 | 16 | 1008.5 |
| 20260504174252 | 69 | 185 | 3.0 | 6.0 | 0.00 | 0.00 | 0.00 | 18 | 1008.6 |
| 20260504173254 | 69 | 237 | 2.0 | 5.0 | 0.00 | 0.00 | 0.00 | 17 | 1008.6 |
| 20260504172758 | 68 | 80 | 2.0 | 5.0 | 0.00 | 0.00 | 0.00 | 19 | 1008.7 |
| 20260504172245 | 68 | 345 | 4.0 | 7.0 | 0.00 | 0.00 | 0.00 | 17 | 1008.7 |
| 20260504171749 | 68 | 22 | 2.0 | 6.0 | 0.00 | 0.00 | 0.00 | 21 | 1008.6 |
| 20260504171258 | 67 | 299 | 1.0 | 4.0 | 0.00 | 0.00 | 0.00 | 20 | 1008.6 |
| 20260504170741 | 67 | 250 | 2.0 | 5.0 | 0.00 | 0.00 | 0.00 | 20 | 1008.6 |
| 20260504170247 | 66 | 276 | 1.0 | 5.0 | 0.00 | 0.00 | 0.00 | 20 | 1008.6 |
| 20260504160249 | 59 | 9 | 2.0 | 5.0 | 0.00 | 0.00 | 0.00 | 34 | 1008.8 |
| 20260504150758 | 53 | 107 | 1.0 | 3.0 | 0.00 | 0.00 | 0.00 | 41 | 1009.1 |
| 20260504150244 | 52 | 26 | 2.0 | 3.0 | 0.00 | 0.00 | 0.00 | 40 | 1009.1 |
| 20260504141251 | 43 | 93 | 1.0 | 2.0 | 0.00 | 0.00 | 0.00 | 60 | 1009.4 |
| 20260504140756 | 42 | 216 | 0.0 | 2.0 | 0.00 | 0.00 | 0.00 | 63 | 1009.4 |
| 20260504140302 | 41 | 263 | 0.0 | 1.0 | 0.00 | 0.00 | 0.00 | 64 | 1009.2 |
| 20260504130756 | 33 | 347 | 0.0 | 0.0 | 0.00 | 0.00 | 0.00 | 65 | 1008.9 |
| 20260504130302 | 33 | 347 | 0.0 | 1.0 | 0.00 | 0.00 | 0.00 | 64 | 1008.8 |
| 20260504120310 | 33 | 347 | 0.0 | 1.0 | 0.00 | 0.00 | 0.00 | 60 | 1008.8 |
| 20260504110301 | 35 | 347 | 1.0 | 2.0 | 0.00 | 0.00 | 0.00 | 57 | 1008.8 |
| 20260504100254 | 38 | 347 | 0.0 | 2.0 | 0.00 | 0.00 | 0.00 | 54 | 1008.7 |
| 20260504081744 | 44 | 347 | 1.0 | 3.0 | 0.00 | 0.00 | 0.00 | 43 | 1008.9 |
| 20260504081252 | 45 | 347 | 1.0 | 2.0 | 0.00 | 0.00 | 0.00 | 42 | 1008.9 |
| 20260504080816 | 45 | 347 | 0.0 | 1.0 | 0.00 | 0.00 | 0.00 | 42 | 1009.1 |
| 20260504080323 | 46 | 347 | 0.0 | 2.0 | 0.00 | 0.00 | 0.00 | 40 | 1009.1 |
| 20260504070253 | 51 | 162 | 3.0 | 6.0 | 0.00 | 0.00 | 0.00 | 31 | 1008.7 |
| 20260504050243 | 49 | 229 | 1.0 | 1.0 | 0.00 | 0.00 | 0.00 | 39 | 1009.4 |
| 20260504045747 | 50 | 229 | 0.0 | 2.0 | 0.00 | 0.00 | 0.00 | 38 | 1009.4 |
| 20260504045254 | 50 | 229 | 1.0 | 2.0 | 0.00 | 0.00 | 0.00 | 38 | 1009.2 |
| 20260504044758 | 50 | 229 | 1.0 | 2.0 | 0.00 | 0.00 | 0.00 | 37 | 1009.2 |
| 20260504044245 | 51 | 229 | 1.0 | 2.0 | 0.00 | 0.00 | 0.00 | 36 | 1009.2 |
| 20260504043749 | 51 | 229 | 0.0 | 2.0 | 0.00 | 0.00 | 0.00 | 36 | 1009.4 |
| 20260504043259 | 51 | 229 | 0.0 | 2.0 | 0.00 | 0.00 | 0.00 | 35 | 1009.4 |
| 20260504042743 | 52 | 229 | 1.0 | 2.0 | 0.00 | 0.00 | 0.00 | 34 | 1009.4 |
| 20260504042251 | 52 | 229 | 1.0 | 2.0 | 0.00 | 0.00 | 0.00 | 34 | 1009.4 |
| 20260504041757 | 52 | 229 | 0.0 | 1.0 | 0.00 | 0.00 | 0.00 | 35 | 1009.2 |
| 20260504041243 | 53 | 229 | 0.0 | 2.0 | 0.00 | 0.00 | 0.00 | 33 | 1009.2 |
| 20260504040747 | 53 | 229 | 1.0 | 2.0 | 0.00 | 0.00 | 0.00 | 32 | 1009.2 |
| 20260504040255 | 53 | 229 | 1.0 | 2.0 | 0.00 | 0.00 | 0.00 | 33 | 1009.2 |
| 20260504035819 | 53 | 229 | 1.0 | 2.0 | 0.00 | 0.00 | 0.00 | 33 | 1009.2 |
| 20260504035305 | 54 | 229 | 1.0 | 2.0 | 0.00 | 0.00 | 0.00 | 33 | 1009.2 |
| 20260504034749 | 54 | 229 | 1.0 | 2.0 | 0.00 | 0.00 | 0.00 | 32 | 1009.1 |
| 20260504034256 | 54 | 229 | 1.0 | 2.0 | 0.00 | 0.00 | 0.00 | 33 | 1009.2 |
| 20260504033740 | 54 | 229 | 1.0 | 2.0 | 0.00 | 0.00 | 0.00 | 32 | 1009.1 |
| 20260504033247 | 55 | 229 | 1.0 | 2.0 | 0.00 | 0.00 | 0.00 | 33 | 1009.2 |
| 20260504032752 | 55 | 229 | 0.0 | 2.0 | 0.00 | 0.00 | 0.00 | 32 | 1009.1 |
| 20260504032258 | 56 | 229 | 1.0 | 2.0 | 0.00 | 0.00 | 0.00 | 30 | 1009.1 |
| 20260504031741 | 56 | 229 | 1.0 | 3.0 | 0.00 | 0.00 | 0.00 | 31 | 1009.1 |
| 20260504031250 | 57 | 229 | 2.0 | 3.0 | 0.00 | 0.00 | 0.00 | 30 | 1009.0 |
| 20260504030753 | 58 | 229 | 2.0 | 3.0 | 0.00 | 0.00 | 0.00 | 28 | 1009.0 |
| 20260504030321 | 58 | 229 | 1.0 | 2.0 | 0.00 | 0.00 | 0.00 | 27 | 1008.9 |
| 20260504025744 | 59 | 229 | 1.0 | 2.0 | 0.00 | 0.00 | 0.00 | 26 | 1008.9 |
| 20260504025251 | 59 | 229 | 1.0 | 2.0 | 0.00 | 0.00 | 0.00 | 27 | 1008.9 |
| 20260504024815 | 59 | 229 | 0.0 | 1.0 | 0.00 | 0.00 | 0.00 | 25 | 1008.8 |
| 20260504024321 | 60 | 229 | 0.0 | 1.0 | 0.00 | 0.00 | 0.00 | 23 | 1008.8 |
| 20260504023805 | 61 | 229 | 0.0 | 2.0 | 0.00 | 0.00 | 0.00 | 24 | 1008.7 |
| 20260504023252 | 62 | 229 | 1.0 | 2.0 | 0.00 | 0.00 | 0.00 | 23 | 1008.7 |
| 20260504022756 | 63 | 229 | 1.0 | 2.0 | 0.00 | 0.00 | 0.00 | 20 | 1008.7 |
| 20260504022304 | 64 | 229 | 0.0 | 1.0 | 0.00 | 0.00 | 0.00 | 19 | 1008.7 |
| 20260504021747 | 65 | 229 | 0.0 | 1.0 | 0.00 | 0.00 | 0.00 | 19 | 1008.7 |
| 20260504021255 | 66 | 229 | 0.0 | 1.0 | 0.00 | 0.00 | 0.00 | 20 | 1008.6 |
| 20260504020759 | 67 | 229 | 0.0 | 2.0 | 0.00 | 0.00 | 0.00 | 17 | 1008.6 |
| 20260504020245 | 68 | 229 | 1.0 | 2.0 | 0.00 | 0.00 | 0.00 | 14 | 1008.7 |
| 20260504015748 | 69 | 229 | 0.0 | 2.0 | 0.00 | 0.00 | 0.00 | 14 | 1008.7 |
| 20260504015255 | 69 | 229 | 0.0 | 2.0 | 0.00 | 0.00 | 0.00 | 15 | 1008.7 |
| 20260504014738 | 70 | 229 | 0.0 | 1.0 | 0.00 | 0.00 | 0.00 | 15 | 1008.7 |
| 20260504014249 | 70 | 229 | 0.0 | 1.0 | 0.00 | 0.00 | 0.00 | 14 | 1008.7 |
| 20260504013753 | 71 | 229 | 0.0 | 2.0 | 0.00 | 0.00 | 0.00 | 12 | 1008.8 |
| 20260504013300 | 71 | 229 | 1.0 | 3.0 | 0.00 | 0.00 | 0.00 | 11 | 1008.8 |
| 20260504012744 | 71 | 205 | 1.0 | 6.0 | 0.00 | 0.00 | 0.00 | 9 | 1008.9 |
| 20260504012251 | 71 | 158 | 2.0 | 6.0 | 0.00 | 0.00 | 0.00 | 8 | 1008.8 |
| 20260504011754 | 72 | 189 | 4.0 | 9.0 | 0.00 | 0.00 | 0.00 | 8 | 1008.9 |
| 20260504011301 | 72 | 210 | 3.0 | 9.0 | 0.00 | 0.00 | 0.00 | 10 | 1008.9 |
| 20260504010744 | 72 | 229 | 4.0 | 6.0 | 0.00 | 0.00 | 0.00 | 8 | 1009.1 |
| 20260504010250 | 72 | 237 | 1.0 | 8.0 | 0.00 | 0.00 | 0.00 | 9 | 1009.1 |
| 20260504005752 | 72 | 266 | 3.0 | 8.0 | 0.00 | 0.00 | 0.00 | 8 | 1009.1 |
| 20260504005243 | 72 | 256 | 2.0 | 8.0 | 0.00 | 0.00 | 0.00 | 8 | 1009.1 |
| 20260504004746 | 72 | 216 | 4.0 | 8.0 | 0.00 | 0.00 | 0.00 | 9 | 1009.3 |
| 20260504004253 | 72 | 261 | 2.0 | 5.0 | 0.00 | 0.00 | 0.00 | 9 | 1009.2 |
| 20260504003755 | 72 | 320 | 1.0 | 5.0 | 0.00 | 0.00 | 0.00 | 10 | 1009.2 |
| 20260504003243 | 72 | 223 | 1.0 | 5.0 | 0.00 | 0.00 | 0.00 | 10 | 1009.4 |
| 20260504002746 | 72 | 216 | 2.0 | 6.0 | 0.00 | 0.00 | 0.00 | 9 | 1009.5 |
| 20260504002311 | 73 | 139 | 3.0 | 6.0 | 0.00 | 0.00 | 0.00 | 8 | 1009.4 |
| 20260504001754 | 73 | 175 | 3.0 | 8.0 | 0.00 | 0.00 | 0.00 | 9 | 1009.5 |
| 20260504001254 | 74 | 203 | 2.0 | 9.0 | 0.00 | 0.00 | 0.00 | 9 | 1009.5 |
| 20260504000758 | 74 | 185 | 4.0 | 11.0 | 0.00 | 0.00 | 0.00 | 10 | 1009.6 |
| 20260504000244 | 74 | 221 | 5.0 | 9.0 | 0.00 | 0.00 | 0.00 | 7 | 1009.7 |
| 20260503235748 | 74 | 175 | 3.0 | 8.0 | 0.00 | 0.00 | 0.00 | 8 | 1009.7 |
| 20260503235250 | 75 | 248 | 2.0 | 6.0 | 0.00 | 0.00 | 0.00 | 8 | 1009.7 |
| 20260503234814 | 75 | 175 | 3.0 | 6.0 | 0.00 | 0.00 | 0.00 | 7 | 1009.9 |
| 20260503234320 | 75 | 233 | 3.0 | 6.0 | 0.00 | 0.00 | 0.00 | 9 | 1009.9 |
| 20260503233741 | 75 | 204 | 2.0 | 12.0 | 0.00 | 0.00 | 0.00 | 9 | 1010.0 |